Location: Gaast
(52.9002°N, 5.8891°E)
Time: 01:08:03
(UTC+00:00)

SL-16 R/B - Pass Details

Date: 18 November 2025
Orbit: 985 x 1006 km, 99.8° (Epoch: 13 December)

Event Time Altitude Azimuth Distance (km) Brightness Sun altitude
Rises 16:43:01 0° 16° (NNE) 3,749 5.2 -9.7°
Reaches altitude 10° 16:45:30 10° 16° (NNE) 2,795 4.6 -10.1°
Maximum altitude 16:51:48 82° 291° (WNW) 1,021 2.7 -11.0°
Drops below altitude 10° 16:58:02 10° 204° (SSW) 2,769 5.5 -11.9°
Sets 17:00:30 0° 204° (SSW) 3,712 6.2 -12.3°
